Montgomery, AL

10:13 PM CDT on October 20, 2017 (GMT -0500)
Montgomery Regional

Weather History for KMGM - September, 2013

Change the Weather History Date:

Wednesday, September 25, 2013

  Actual Average Record
Temperature  
Mean Temperature 78 °F 73 °F  
Max Temperature 86 °F 85 °F 98 °F (2016)
Min Temperature 70 °F 62 °F 42 °F (1990)
Degree Days  
Heating Degree Days 0 0  
Month to date heating degree days 0 0  
Since 1 July heating degree days 0 0  
Cooling Degree Days 13 9  
Month to date cooling degree days 365 304  
Year to date cooling degree days 2187 2093  
Growing Degree Days 28 (Base 50)    
Moisture  
Dew Point 69 °F    
Average Humidity 77    
Maximum Humidity 97    
Minimum Humidity 57    
Precipitation  
Precipitation T in 0.13 in 3.26 in (1956)
Month to date precipitation 1.48 3.37  
Year to date precipitation 44.49 40.08  
Sea Level Pressure  
Sea Level Pressure 29.81 in    
Wind  
Wind Speed 4 mph (NE)    
Max Wind Speed 10 mph    
Max Gust Speed 15 mph    
Visibility 8 miles    
Events      
T = Trace of Precipitation, MM = Missing Value Source: NWS Daily Summary

Daily Weather History Graph

Daily Weather History Graph

Search for Another Location

Airport or City:

Trip Planner

Search our weather history database for the weather conditions in past years. The results will help you decide how hot, cold, wet, or windy it might be!

Date:

Astronomy

Sep. 25, 2013 Rise Set
Actual Time 6:35 AM CDT 6:37 PM CDT
Civil Twilight 6:11 AM CDT 7:02 PM CDT
Nautical Twilight 5:42 AM CDT 7:30 PM CDT
Astronomical Twilight 5:14 AM CDT 7:59 PM CDT
Moon 11:01 PM CDT (9/25) 12:23 PM CDT (9/25)
Length of Visible Light 12h 50m
Length of Day
12h 02m
Waning Gibbous, 64% of the Moon is Illuminated
Sep 25
Waning Gibbous
Sep 26
Last Quarter
Oct 4
New
Oct 11
First Quarter
Oct 18
Full

Hourly Weather History & Observations

Time (CDT) Temp. Heat Index Dew Point Humidity Pressure Visibility Wind Dir Wind Speed Gust Speed Precip Events Conditions
12:09 AM 71.6 °F - 69.8 °F 94% 29.82 in 8.0 mi North 4.6 mph - N/A   Overcast
12:53 AM 72.0 °F - 70.0 °F 93% 29.81 in 9.0 mi NNE 3.5 mph - N/A   Overcast
1:53 AM 72.0 °F - 69.1 °F 91% 29.81 in 7.0 mi NNE 4.6 mph - N/A   Overcast
2:53 AM 72.0 °F - 69.1 °F 91% 29.80 in 7.0 mi ENE 6.9 mph - N/A   Overcast
3:53 AM 71.1 °F - 68.0 °F 90% 29.80 in 4.0 mi East 6.9 mph - N/A   Overcast
4:53 AM 70.0 °F - 68.0 °F 93% 29.80 in 3.0 mi East 5.8 mph - 0.00 in   Overcast
4:59 AM 69.8 °F - 68.0 °F 94% 29.80 in 1.8 mi East 4.6 mph - N/A   Overcast
5:18 AM 69.8 °F - 68.0 °F 94% 29.80 in 2.5 mi East 5.8 mph - N/A   Overcast
5:30 AM 69.8 °F - 68.0 °F 94% 29.80 in 3.0 mi East 5.8 mph - N/A   Overcast
5:53 AM 70.0 °F - 68.0 °F 93% 29.79 in 4.0 mi East 5.8 mph - N/A   Overcast
6:53 AM 71.1 °F - 68.0 °F 90% 29.80 in 2.5 mi East 3.5 mph - N/A   Overcast
7:53 AM 71.1 °F - 69.1 °F 93% 29.82 in 4.0 mi Calm Calm - N/A   Overcast
8:53 AM 72.0 °F - 69.1 °F 91% 29.83 in 6.0 mi Calm Calm - N/A   Overcast
9:53 AM 73.9 °F - 70.0 °F 87% 29.83 in 8.0 mi North 3.5 mph - N/A   Overcast
10:53 AM 75.9 °F - 70.0 °F 82% 29.83 in 10.0 mi Calm Calm - 0.00 in   Overcast
11:53 AM 78.1 °F - 71.1 °F 79% 29.82 in 10.0 mi NNW 4.6 mph - N/A   Overcast
12:53 PM 80.1 °F 83.6 °F 71.1 °F 74% 29.80 in 10.0 mi WNW 5.8 mph - N/A   Overcast
12:55 PM 80.6 °F 84.6 °F 71.6 °F 74% 29.81 in 10.0 mi NW 8.1 mph - N/A   Mostly Cloudy
1:02 PM 80.6 °F 84.6 °F 71.6 °F 74% 29.81 in 10.0 mi WNW 6.9 mph - N/A   Overcast
1:53 PM 84.0 °F 89.0 °F 71.1 °F 65% 29.78 in 10.0 mi NNW 8.1 mph - N/A   Mostly Cloudy
2:53 PM 84.0 °F 88.4 °F 70.0 °F 63% 29.76 in 10.0 mi Variable 4.6 mph - N/A   Mostly Cloudy
3:53 PM 86.0 °F 90.1 °F 69.1 °F 57% 29.76 in 10.0 mi NNW 5.8 mph - N/A   Partly Cloudy
4:53 PM 82.9 °F 86.5 °F 69.1 °F 63% 29.76 in 10.0 mi NNW 4.6 mph - N/A   Partly Cloudy
5:53 PM 82.9 °F 86.5 °F 69.1 °F 63% 29.78 in 10.0 mi NNW 3.5 mph - N/A   Clear
6:53 PM 79.0 °F - 71.1 °F 77% 29.78 in 10.0 mi Calm Calm - N/A   Clear
7:53 PM 75.9 °F - 70.0 °F 82% 29.80 in 10.0 mi Calm Calm - N/A   Clear
8:53 PM 72.0 °F - 70.0 °F 93% 29.81 in 10.0 mi Calm Calm - N/A   Clear
9:53 PM 72.0 °F - 70.0 °F 93% 29.82 in 10.0 mi Calm Calm - N/A   Mostly Cloudy
10:50 PM 73.4 °F - 69.8 °F 88% 29.85 in 10.0 mi ENE 8.1 mph - N/A   Mostly Cloudy
10:53 PM 73.0 °F - 69.1 °F 87% 29.84 in 10.0 mi ENE 8.1 mph - N/A   Mostly Cloudy
11:00 PM 73.4 °F - 68.0 °F 83% 29.85 in 10.0 mi ENE 10.4 mph - N/A   Scattered Clouds
11:53 PM 71.1 °F - 66.9 °F 87% 29.84 in 10.0 mi East 5.8 mph - N/A   Clear